When you browse on this site, cookies collect data to enhance your experience and personalize the content and advertising you see.
Visit our Privacy Policy to learn more. By continuing to use the site, you agree to this use of cookies and data.
  • In Schweiz
  • Länderverzeichnis
  • Für 7 Tage
  • Wassertemperatur
  • Satellitenkarten
  • Wetterkarte
  • Widgets
  • user-avatar
    Anmelden

    Stündliche Wetter Tokmak

    Heute, 26 März, Dienstag

    Zeit Temperatur Niederschläge Wind Luftdruck Luftfeuchtigkeit
    00:00 -14°C° 0 mm 3 m/S 480 mmHg 63%
    01:00 -15°C° 0 mm 3 m/S 480 mmHg 62%
    02:00 -15°C° 0 mm 3 m/S 480 mmHg 60%
    03:00 -15°C° 0 mm 3 m/S 480 mmHg 59%
    04:00 -15°C° 0 mm 3 m/S 480 mmHg 58%
    05:00 -16°C° 0 mm 4 m/S 480 mmHg 56%
    06:00 -14°C° 0 mm 3 m/S 481 mmHg 55%
    07:00 -12°C° 0 mm 3 m/S 482 mmHg 54%
    08:00 -10°C° 0 mm 3 m/S 483 mmHg 53%
    09:00 -9°C° 0 mm 3 m/S 483 mmHg 50%
    10:00 -7°C° 0 mm 3 m/S 484 mmHg 47%
    11:00 -6°C° 0 mm 3 m/S 484 mmHg 44%
    12:00 -5°C° 0 mm 3 m/S 484 mmHg 43%
    13:00 -4°C° 0 mm 3 m/S 484 mmHg 42%
    14:00 -4°C° 0 mm 3 m/S 484 mmHg 41%
    15:00 -4°C° 0 mm 3 m/S 484 mmHg 43%
    16:00 -5°C° 0 mm 3 m/S 483 mmHg 45%
    17:00 -5°C° 0 mm 3 m/S 483 mmHg 47%
    18:00 -6°C° 0 mm 3 m/S 482 mmHg 48%
    19:00 -8°C° 0 mm 4 m/S 481 mmHg 49%
    20:00 -10°C° 0 mm 4 m/S 481 mmHg 50%
    21:00 -9°C° 0 mm 4 m/S 481 mmHg 48%
    22:00 -9°C° 0 mm 4 m/S 481 mmHg 47%
    23:00 -9°C° 0 mm 4 m/S 481 mmHg 45%

    Morgen, 27 März, Mittwoch

    Zeit Temperatur Niederschläge Wind Luftdruck Luftfeuchtigkeit
    00:00 -9°C° 0 mm 4 m/S 480 mmHg 46%
    01:00 -9°C° 0 mm 4 m/S 480 mmHg 46%
    02:00 -8°C° 0 mm 3 m/S 480 mmHg 47%
    03:00 -8°C° 0.1 mm 3 m/S 480 mmHg 51%
    04:00 -7°C° 0.1 mm 2 m/S 480 mmHg 55%
    05:00 -8°C° 0.1 mm 2 m/S 480 mmHg 59%
    06:00 -7°C° 0.4 mm 2 m/S 480 mmHg 62%
    07:00 -7°C° 0.4 mm 2 m/S 481 mmHg 66%
    08:00 -7°C° 0.4 mm 2 m/S 481 mmHg 69%
    09:00 -5°C° 0.2 mm 2 m/S 482 mmHg 68%
    10:00 -4°C° 0.2 mm 2 m/S 482 mmHg 66%
    11:00 -3°C° 0.2 mm 2 m/S 483 mmHg 65%
    12:00 -3°C° 0.1 mm 2 m/S 483 mmHg 64%
    13:00 0°C° 0.1 mm 1 m/S 483 mmHg 64%
    14:00 0°C° 0.1 mm 1 m/S 483 mmHg 64%
    15:00 0°C° 0.3 mm 1 m/S 482 mmHg 64%
    16:00 -1°C° 0.3 mm 1 m/S 482 mmHg 65%
    17:00 -1°C° 0.3 mm 1 m/S 482 mmHg 66%
    18:00 -2°C° 0.5 mm 1 m/S 482 mmHg 68%
    19:00 -2°C° 0.5 mm 1 m/S 481 mmHg 70%
    20:00 -5°C° 0.5 mm 2 m/S 481 mmHg 72%
    21:00 -5°C° 0.8 mm 2 m/S 481 mmHg 73%
    22:00 -6°C° 0.8 mm 3 m/S 481 mmHg 73%
    23:00 -6°C° 0.8 mm 3 m/S 481 mmHg 74%

    übermorgen, 28 März, Donnerstag

    Zeit Temperatur Niederschläge Wind Luftdruck Luftfeuchtigkeit
    00:00 -6°C° 0.3 mm 3 m/S 481 mmHg 74%
    01:00 -6°C° 0.3 mm 3 m/S 481 mmHg 73%
    02:00 -5°C° 0.3 mm 2 m/S 481 mmHg 73%
    03:00 -5°C° 0.1 mm 2 m/S 481 mmHg 73%
    04:00 -5°C° 0.1 mm 2 m/S 481 mmHg 74%
    05:00 -3°C° 0.1 mm 1 m/S 481 mmHg 74%
    06:00 -3°C° 0.4 mm 1 m/S 481 mmHg 75%
    07:00 -3°C° 0.4 mm 1 m/S 481 mmHg 75%
    08:00 -2°C° 0.4 mm 1 m/S 482 mmHg 76%
    09:00 -2°C° 0.7 mm 1 m/S 482 mmHg 77%
    10:00 -2°C° 0.7 mm 1 m/S 483 mmHg 78%
    11:00 -2°C° 0.7 mm 1 m/S 483 mmHg 79%
    12:00 -1°C° 0.4 mm 1 m/S 483 mmHg 78%
    13:00 -1°C° 0.4 mm 1 m/S 483 mmHg 77%
    14:00 -1°C° 0.4 mm 1 m/S 483 mmHg 75%
    15:00 -1°C° 0.3 mm 1 m/S 483 mmHg 75%
    16:00 -1°C° 0.3 mm 1 m/S 483 mmHg 75%
    17:00 -2°C° 0.3 mm 1 m/S 483 mmHg 76%
    18:00 -2°C° 0.2 mm 1 m/S 483 mmHg 76%
    19:00 -5°C° 0.2 mm 2 m/S 483 mmHg 76%
    20:00 -6°C° 0.2 mm 2 m/S 482 mmHg 76%
    21:00 -6°C° 0 mm 2 m/S 482 mmHg 73%
    22:00 -7°C° 0 mm 3 m/S 482 mmHg 70%
    23:00 -8°C° 0 mm 3 m/S 481 mmHg 67%

    29 März, Freitag

    Zeit Temperatur Niederschläge Wind Luftdruck Luftfeuchtigkeit
    00:00 -8°C° 0 mm 3 m/S 481 mmHg 65%
    01:00 -8°C° 0 mm 3 m/S 480 mmHg 63%
    02:00 -8°C° 0 mm 3 m/S 480 mmHg 62%
    03:00 -8°C° 0 mm 3 m/S 480 mmHg 62%
    04:00 -9°C° 0 mm 3 m/S 480 mmHg 61%
    05:00 -9°C° 0 mm 3 m/S 480 mmHg 61%
    06:00 -7°C° 0 mm 3 m/S 480 mmHg 61%
    07:00 -6°C° 0 mm 3 m/S 481 mmHg 61%
    08:00 -5°C° 0 mm 3 m/S 482 mmHg 61%
    09:00 -4°C° 0 mm 3 m/S 482 mmHg 61%
    10:00 -2°C° 0 mm 2 m/S 482 mmHg 62%
    11:00 -1°C° 0 mm 2 m/S 483 mmHg 62%
    12:00 -1°C° 0 mm 2 m/S 482 mmHg 61%
    13:00 +1°C° 0 mm 1 m/S 482 mmHg 61%
    14:00 +1°C° 0 mm 1 m/S 482 mmHg 60%
    15:00 +1°C° 0 mm 1 m/S 481 mmHg 60%
    16:00 -2°C° 0 mm 2 m/S 481 mmHg 60%
    17:00 -3°C° 0 mm 2 m/S 480 mmHg 60%
    18:00 -4°C° 0 mm 2 m/S 480 mmHg 69%
    19:00 -5°C° 0 mm 2 m/S 479 mmHg 77%
    20:00 -4°C° 0 mm 1 m/S 479 mmHg 86%
    21:00 -4°C° 0.1 mm 1 m/S 479 mmHg 87%
    22:00 -4°C° 0.1 mm 1 m/S 479 mmHg 88%
    23:00 -4°C° 0.1 mm 1 m/S 479 mmHg 89%

    30 März, Samstag

    Zeit Temperatur Niederschläge Wind Luftdruck Luftfeuchtigkeit
    00:00 -4°C° 0.1 mm 1 m/S 478 mmHg 88%
    01:00 -6°C° 0.1 mm 1 m/S 478 mmHg 86%
    02:00 -6°C° 0.1 mm 1 m/S 478 mmHg 85%
    03:00 -7°C° 0 mm 1 m/S 477 mmHg 80%
    04:00 -8°C° 0 mm 2 m/S 477 mmHg 75%
    05:00 -9°C° 0 mm 2 m/S 477 mmHg 71%
    06:00 -8°C° 0.1 mm 2 m/S 478 mmHg 69%
    07:00 -7°C° 0.1 mm 2 m/S 479 mmHg 67%
    08:00 -7°C° 0.1 mm 2 m/S 480 mmHg 65%
    09:00 -7°C° 0.2 mm 2 m/S 480 mmHg 69%
    10:00 -7°C° 0.2 mm 2 m/S 480 mmHg 73%
    11:00 -6°C° 0.2 mm 1 m/S 480 mmHg 76%
    12:00 -7°C° 0.8 mm 2 m/S 480 mmHg 79%
    13:00 -8°C° 0.8 mm 2 m/S 480 mmHg 83%
    14:00 -8°C° 0.8 mm 2 m/S 480 mmHg 86%
    15:00 -8°C° 1 mm 2 m/S 480 mmHg 86%
    16:00 -8°C° 1 mm 1 m/S 480 mmHg 86%
    17:00 -8°C° 1 mm 1 m/S 480 mmHg 87%
    18:00 -8°C° 0.6 mm 1 m/S 480 mmHg 86%
    19:00 -8°C° 0.6 mm 1 m/S 481 mmHg 85%
    20:00 -8°C° 0.6 mm 1 m/S 481 mmHg 84%
    21:00 -8°C° 0.2 mm 1 m/S 481 mmHg 82%
    22:00 -9°C° 0.2 mm 1 m/S 481 mmHg 80%
    23:00 -10°C° 0.2 mm 2 m/S 481 mmHg 78%

    31 März, Sonntag

    Zeit Temperatur Niederschläge Wind Luftdruck Luftfeuchtigkeit
    00:00 -10°C° 0 mm 2 m/S 480 mmHg 76%
    01:00 -10°C° 0 mm 2 m/S 480 mmHg 74%
    02:00 -10°C° 0 mm 2 m/S 480 mmHg 72%
    03:00 -10°C° 0 mm 2 m/S 480 mmHg 71%
    04:00 -10°C° 0 mm 2 m/S 480 mmHg 70%
    05:00 -10°C° 0 mm 2 m/S 480 mmHg 69%
    06:00 -9°C° 0 mm 2 m/S 481 mmHg 69%
    07:00 -8°C° 0 mm 2 m/S 482 mmHg 69%
    08:00 -7°C° 0 mm 2 m/S 482 mmHg 70%
    09:00 -6°C° 0 mm 2 m/S 483 mmHg 67%
    10:00 -4°C° 0 mm 1 m/S 483 mmHg 64%
    11:00 -3°C° 0 mm 1 m/S 483 mmHg 62%
    12:00 -2°C° 0 mm 1 m/S 483 mmHg 59%
    13:00 -2°C° 0 mm 1 m/S 483 mmHg 56%
    14:00 -2°C° 0 mm 1 m/S 483 mmHg 54%
    15:00 -2°C° 0 mm 1 m/S 483 mmHg 55%
    16:00 -3°C° 0 mm 1 m/S 483 mmHg 57%
    17:00 -3°C° 0 mm 1 m/S 483 mmHg 58%
    18:00 -6°C° 0 mm 2 m/S 482 mmHg 58%
    19:00 -7°C° 0 mm 2 m/S 482 mmHg 59%
    20:00 -9°C° 0 mm 3 m/S 481 mmHg 59%
    21:00 -9°C° 0 mm 3 m/S 481 mmHg 59%
    22:00 -10°C° 0 mm 4 m/S 481 mmHg 59%
    23:00 -10°C° 0 mm 4 m/S 481 mmHg 58%
    Mehr zeigen